Time,TemperatureF,DewpointF,PressureIn,WindDirection,WindDirectionDegrees,WindSpeedMPH,WindSpeedGustMPH,Humidity,HourlyPrecipIn,Conditions,Clouds,dailyrainin,SoftwareType,DateUTC
2013-09-19 00:01:00,53.0,50.0,30.15,North,0,0.0,0.0,89,0.00,,,0.00,,2013-09-19 04:01:00,
2013-09-19 00:14:00,53.0,50.0,30.15,North,0,0.0,0.0,90,0.00,,,0.00,,2013-09-19 04:14:00,
2013-09-19 00:25:00,53.0,50.0,30.15,North,0,0.0,0.0,90,0.00,,,0.00,,2013-09-19 04:25:00,
2013-09-19 00:54:00,52.0,49.0,30.14,North,0,0.0,0.0,90,0.00,,,0.00,,2013-09-19 04:54:00,
2013-09-19 01:23:00,52.0,49.0,30.14,North,0,0.0,0.0,90,0.00,,,0.00,,2013-09-19 05:23:00,
2013-09-19 01:52:00,52.0,49.0,30.14,North,0,0.0,0.0,90,0.00,,,0.00,,2013-09-19 05:52:00,
2013-09-19 02:22:00,52.0,49.0,30.14,North,0,0.0,0.0,91,0.00,,,0.00,,2013-09-19 06:22:00,
2013-09-19 02:52:00,52.0,49.0,30.13,North,0,0.0,0.0,91,0.00,,,0.00,,2013-09-19 06:52:00,
2013-09-19 03:22:00,52.0,49.0,30.12,North,0,0.0,0.0,91,0.00,,,0.00,,2013-09-19 07:22:00,
2013-09-19 03:52:00,52.0,49.0,30.12,North,0,0.0,0.0,91,0.00,,,0.00,,2013-09-19 07:52:00,
2013-09-19 04:12:00,53.0,50.0,30.12,North,0,0.0,0.0,91,0.00,,,0.00,,2013-09-19 08:12:00,
2013-09-19 04:22:00,53.0,50.0,30.12,North,0,0.0,0.0,91,0.00,,,0.00,,2013-09-19 08:22:00,
2013-09-19 04:52:00,53.0,50.0,30.12,North,0,0.0,0.0,90,0.00,,,0.00,,2013-09-19 08:52:00,
2013-09-19 05:21:00,53.0,50.0,30.12,North,0,0.0,0.0,91,0.00,,,0.00,,2013-09-19 09:21:00,
2013-09-19 05:53:00,54.0,51.0,30.12,North,0,0.0,0.0,91,0.00,,,0.00,,2013-09-19 09:53:00,
2013-09-19 06:24:00,55.0,52.0,30.12,North,0,0.0,0.0,90,0.00,,,0.00,,2013-09-19 10:24:00,
2013-09-19 06:52:00,55.0,52.0,30.13,North,0,0.0,0.0,90,0.00,,,0.00,,2013-09-19 10:52:00,
2013-09-19 07:22:00,56.0,53.0,30.13,North,0,0.0,0.0,90,0.00,,,0.00,,2013-09-19 11:22:00,
2013-09-19 07:52:00,56.0,53.0,30.13,North,0,0.0,0.0,90,0.00,,,0.00,,2013-09-19 11:52:00,
2013-09-19 08:22:00,57.0,54.0,30.14,North,0,0.0,0.0,91,0.00,,,0.00,,2013-09-19 12:22:00,
2013-09-19 08:52:00,58.0,56.0,30.14,North,0,0.0,0.0,92,0.00,,,0.00,,2013-09-19 12:52:00,
2013-09-19 09:22:00,59.0,57.0,30.14,North,0,0.0,0.0,92,0.00,,,0.00,,2013-09-19 13:22:00,
2013-09-19 09:52:00,60.0,57.0,30.15,North,0,0.0,1.0,89,0.00,,,0.00,,2013-09-19 13:52:00,
2013-09-19 10:22:00,62.0,57.0,30.15,North,0,0.0,1.0,85,0.00,,,0.00,,2013-09-19 14:22:00,
2013-09-19 10:52:00,63.0,58.0,30.15,North,0,0.0,3.0,84,0.00,,,0.00,,2013-09-19 14:52:00,
2013-09-19 11:22:00,65.0,59.0,30.15,North,0,0.0,2.0,81,0.00,,,0.00,,2013-09-19 15:22:00,
2013-09-19 11:53:00,66.0,59.0,30.15,North,0,0.0,4.0,78,0.00,,,0.00,,2013-09-19 15:53:00,
2013-09-19 12:04:00,66.0,59.0,30.15,North,0,0.0,4.0,78,0.00,,,0.00,,2013-09-19 16:04:00,
2013-09-19 12:24:00,69.0,58.0,30.14,North,0,0.0,3.0,68,0.00,,,0.00,,2013-09-19 16:24:00,
2013-09-19 12:52:00,72.0,60.0,30.13,North,0,0.0,3.0,67,0.00,,,0.00,,2013-09-19 16:52:00,
2013-09-19 13:12:00,73.0,60.0,30.13,North,0,0.0,4.0,64,0.00,,,0.00,,2013-09-19 17:12:00,
2013-09-19 13:23:00,73.0,60.0,30.13,North,0,0.0,4.0,64,0.00,,,0.00,,2013-09-19 17:23:00,
2013-09-19 13:53:00,73.0,61.0,30.11,North,0,0.0,3.0,65,0.00,,,0.00,,2013-09-19 17:53:00,
2013-09-19 14:11:00,73.0,61.0,30.10,North,0,0.0,1.0,67,0.00,,,0.00,,2013-09-19 18:11:00,
2013-09-19 14:22:00,73.0,61.0,30.10,North,0,0.0,1.0,67,0.00,,,0.00,,2013-09-19 18:22:00,
2013-09-19 14:52:00,76.0,62.0,30.08,North,0,0.0,3.0,63,0.00,,,0.00,,2013-09-19 18:52:00,
2013-09-19 15:22:00,75.0,62.0,30.07,North,0,0.0,4.0,64,0.00,,,0.00,,2013-09-19 19:22:00,
2013-09-19 15:52:00,74.0,62.0,30.06,North,0,0.0,0.0,67,0.00,,,0.00,,2013-09-19 19:52:00,
2013-09-19 16:22:00,77.0,63.0,30.06,North,0,0.0,6.0,62,0.00,,,0.00,,2013-09-19 20:22:00,
2013-09-19 16:52:00,74.0,62.0,30.05,North,0,0.0,1.0,67,0.00,,,0.00,,2013-09-19 20:52:00,
2013-09-19 17:22:00,74.0,64.0,30.05,North,0,0.0,0.0,71,0.00,,,0.00,,2013-09-19 21:22:00,
2013-09-19 17:55:00,74.0,63.0,30.05,North,0,0.0,0.0,68,0.00,,,0.00,,2013-09-19 21:55:00,
2013-09-19 18:14:00,72.0,64.0,30.05,North,0,0.0,0.0,75,0.00,,,0.00,,2013-09-19 22:14:00,
2013-09-19 18:24:00,72.0,64.0,30.05,North,0,0.0,0.0,75,0.00,,,0.00,,2013-09-19 22:24:00,
2013-09-19 18:53:00,71.0,65.0,30.05,North,0,0.0,0.0,80,0.00,,,0.00,,2013-09-19 22:53:00,
2013-09-19 19:12:00,70.0,65.0,30.05,North,0,0.0,0.0,83,0.00,,,0.00,,2013-09-19 23:12:00,
2013-09-19 19:23:00,70.0,65.0,30.05,North,0,0.0,0.0,83,0.00,,,0.00,,2013-09-19 23:23:00,
2013-09-19 19:53:00,69.0,65.0,30.05,North,0,0.0,0.0,86,0.00,,,0.00,,2013-09-19 23:53:00,
2013-09-19 20:22:00,68.0,64.0,30.05,North,0,0.0,0.0,87,0.00,,,0.00,,2013-09-20 00:22:00,
2013-09-19 20:52:00,67.0,64.0,30.04,North,0,0.0,0.0,90,0.00,,,0.00,,2013-09-20 00:52:00,
2013-09-19 21:22:00,66.0,63.0,30.04,North,0,0.0,0.0,91,0.00,,,0.00,,2013-09-20 01:22:00,
2013-09-19 21:52:00,65.0,63.0,30.05,North,0,0.0,0.0,93,0.00,,,0.00,,2013-09-20 01:52:00,
2013-09-19 22:22:00,64.0,62.0,30.05,North,0,0.0,0.0,94,0.00,,,0.00,,2013-09-20 02:22:00,
2013-09-19 22:52:00,64.0,62.0,30.05,North,0,0.0,0.0,94,0.00,,,0.00,,2013-09-20 02:52:00,
2013-09-19 23:23:00,64.0,62.0,30.03,North,0,0.0,0.0,93,0.00,,,0.00,,2013-09-20 03:23:00,
2013-09-19 23:56:00,65.0,63.0,30.03,North,0,0.0,0.0,93,0.00,,,0.00,,2013-09-20 03:56:00,